Location: Newark
(60.6561°N, 46.5772°E)
Time: 12:59:13
(UTC+00:00)

A-11 Canister half - All Passes

Search period start: 17 October 2019 00:00
Search period end: 27 October 2019 00:00
Orbit: 1514 x 1686 km, 47.2° (Epoch: 16 October)

Date Brightness Start Highest point End Pass type
(mag) Time Alt. Az. Time Alt. Az. Time Alt. Az.
17 Oct - 01:01:52 10° SW 01:10:05 32° SSE 01:18:04 10° ESE visible
17 Oct - 03:04:45 10° WSW 03:13:12 36° S 03:21:24 10° SE daylight
17 Oct - 05:08:48 10° W 05:16:04 26° SSW 05:23:12 10° SSE daylight
17 Oct - 07:17:39 10° SW 07:18:01 10° SW 07:18:23 10° SW daylight
17 Oct - 22:39:06 10° S 22:44:45 17° SE 22:50:18 10° E visible
18 Oct - 00:39:05 10° SW 00:47:16 32° SSE 00:55:12 10° ESE visible
18 Oct - 02:41:53 10° WSW 02:50:22 36° S 02:58:36 10° ESE visible
18 Oct - 04:45:52 10° W 04:53:16 26° SSW 05:00:32 10° SSE daylight
18 Oct - 06:53:11 10° WSW 06:55:17 11° SW 06:57:23 10° SW daylight
18 Oct - 22:16:35 10° S 22:21:58 16° SE 22:27:17 10° ESE visible
19 Oct - 00:16:18 10° SW 00:24:26 31° SSE 00:32:21 10° ESE visible
19 Oct - 02:19:00 10° WSW 02:27:32 37° S 02:35:49 10° ESE visible
19 Oct - 04:22:56 10° W 04:30:29 27° SSW 04:37:51 10° SSE daylight
19 Oct - 06:29:37 10° WSW 06:32:33 12° SW 06:35:28 10° SSW daylight
19 Oct - 21:54:06 10° SSE 21:59:12 16° SE 22:04:14 10° ESE visible
19 Oct - 23:53:31 10° SSW 00:01:37 30° SSE 00:09:30 10° ESE visible
20 Oct - 01:56:08 10° WSW 02:04:43 37° S 02:13:01 10° ESE visible
20 Oct - 04:00:01 10° W 04:07:41 28° SSW 04:15:10 10° SSE daylight
20 Oct - 06:06:16 10° WSW 06:09:49 13° SW 06:13:21 10° SSW daylight
20 Oct - 21:31:39 10° SSE 21:36:26 15° SE 21:41:09 10° ESE visible
20 Oct - 23:30:45 10° SSW 23:38:48 30° SSE 23:46:38 10° E visible
21 Oct - 01:33:16 10° WSW 01:41:52 37° S 01:50:13 10° ESE visible
21 Oct - 03:37:06 10° W 03:44:53 29° SSW 03:52:28 10° SSE daylight
21 Oct - 05:43:01 10° WSW 05:47:05 14° SW 05:51:06 10° SSW daylight
21 Oct - 21:09:15 10° SSE 21:13:40 14° SE 21:18:02 10° ESE visible
21 Oct - 23:07:58 10° SSW 23:15:59 29° SSE 23:23:46 10° E visible
22 Oct - 01:10:24 10° WSW 01:19:02 37° S 01:27:24 10° ESE visible
22 Oct - 03:14:11 10° W 03:22:05 30° SSW 03:29:46 10° SSE daylight
22 Oct - 05:19:50 10° WSW 05:24:20 14° SW 05:28:47 10° SSW daylight
22 Oct - 20:46:55 10° SSE 20:50:54 13° SE 20:54:52 10° ESE visible
22 Oct - 22:45:14 10° SSW 22:53:09 28° SSE 23:00:54 10° E visible
23 Oct - 00:47:33 10° WSW 00:56:12 37° S 01:04:35 10° ESE visible
23 Oct - 02:51:16 10° WSW 02:59:16 31° SSW 03:07:03 10° SE visible
23 Oct - 04:56:41 10° WSW 05:01:35 15° SW 05:06:25 10° SSW daylight
23 Oct - 20:24:40 10° SSE 20:28:09 12° SE 20:31:37 10° ESE visible
23 Oct - 22:22:29 10° SSW 22:30:21 28° SSE 22:38:01 10° E visible
24 Oct - 00:24:41 10° WSW 00:33:22 37° S 00:41:47 10° ESE visible
24 Oct - 02:28:21 10° WSW 02:36:27 31° SSW 02:44:20 10° SE visible
24 Oct - 04:33:35 10° W 04:38:50 16° SW 04:44:00 10° S daylight
24 Oct - 20:02:32 10° SE 20:05:24 12° SE 20:08:15 10° ESE visible
24 Oct - 21:59:44 10° SSW 22:07:32 27° SSE 22:15:08 10° E visible
25 Oct - 00:01:50 10° WSW 00:10:32 37° S 00:18:57 10° ESE visible
25 Oct - 02:05:26 10° WSW 02:13:38 32° SSW 02:21:36 10° SE visible
25 Oct - 04:10:31 10° W 04:16:04 17° SW 04:21:33 10° S daylight
25 Oct - 19:40:38 10° SE 19:42:38 11° SE 19:44:39 10° ESE visible
25 Oct - 21:37:00 10° SSW 21:44:43 26° SSE 21:52:15 10° E visible
25 Oct - 23:38:58 10° SW 23:47:41 37° S 23:56:08 10° ESE visible
26 Oct - 01:42:32 10° WSW 01:50:49 33° SSW 01:58:52 10° SE visible
26 Oct - 03:47:27 10° W 03:53:19 18° SW 03:59:04 10° S daylight
26 Oct - 21:14:18 10° SSW 21:21:55 26° SSE 21:29:21 10° E visible
26 Oct - 23:16:08 10° SW 23:24:51 37° S 23:33:19 10° ESE visible
